Knoxville, TN

12:23 AM EDT on April 20, 2018 (GMT -0400)
McGhee Tyson

Weather History for KTYS - July, 2013

Change the Weather History Date:

Wednesday, July 10, 2013

  Actual Average Record
Temperature  
Mean Temperature 80 °F 78 °F  
Max Temperature 88 °F 88 °F 101 °F (1936)
Min Temperature 72 °F 69 °F 51 °F (1961)
Degree Days  
Heating Degree Days 0 0  
Month to date heating degree days 0 0  
Since 1 June heating degree days 0 4  
Since 1 July heating degree days 0 0  
Cooling Degree Days 15 13  
Month to date cooling degree days 98 130  
Year to date cooling degree days 574 597  
Since 1 June cooling degree days 418 435  
Growing Degree Days 30 (Base 50)    
Moisture  
Dew Point 71 °F    
Average Humidity 78    
Maximum Humidity 93    
Minimum Humidity 63    
Precipitation  
Precipitation 0.35 in 0.16 in 2.34 in (1939)
Month to date precipitation 5.27 1.67  
Year to date precipitation 46.07 26.92  
Snow  
Snow 0.00 in 0.00 in - ()
Month to date snowfall 0.0 0.0  
Since 1 June snowfall 0.0 0.0  
Since 1 July snowfall 0.0 0.0  
Snow Depth 0.00 in    
Sea Level Pressure  
Sea Level Pressure 30.01 in    
Wind  
Wind Speed 5 mph (WSW)    
Max Wind Speed 21 mph    
Max Gust Speed 24 mph    
Visibility 9 miles    
Events Rain , Thunderstorm    
T = Trace of Precipitation, MM = Missing Value Source: NWS Daily Summary

Daily Weather History Graph

Daily Weather History Graph

Search for Another Location

Airport or City:

Astronomy

Jul. 10, 2013 Rise Set
Actual Time 6:28 AM EDT 8:54 PM EDT
Civil Twilight 5:58 AM EDT 9:23 PM EDT
Nautical Twilight 5:22 AM EDT 10:00 PM EDT
Astronomical Twilight 4:41 AM EDT 10:40 PM EDT
Moon 8:42 AM EDT (7/10) 10:10 PM EDT (7/10)
Length of Visible Light 15h 25m
Length of Day
14h 25m
Waxing Crescent, 5% of the Moon is Illuminated
Jul 10
Waxing Crescent
Jul 15
First Quarter
Jul 22
Full
Jul 29
Last Quarter
Aug 6
New

Hourly Weather History & Observations

Time (EDT) Temp. Heat Index Dew Point Humidity Pressure Visibility Wind Dir Wind Speed Gust Speed Precip Events Conditions
12:53 AM 75.0 °F - 69.1 °F 82% 30.08 in 10.0 mi WSW 3.5 mph - N/A   Overcast
1:53 AM 75.0 °F - 70.0 °F 84% 30.06 in 10.0 mi WSW 3.5 mph - N/A   Overcast
2:53 AM 73.9 °F - 70.0 °F 87% 30.04 in 10.0 mi Calm Calm - N/A   Overcast
3:53 AM 73.9 °F - 70.0 °F 87% 30.04 in 10.0 mi Calm Calm - 0.00 in   Overcast
4:53 AM 73.9 °F - 69.1 °F 85% 30.04 in 10.0 mi Calm Calm - N/A   Overcast
5:44 AM 73.4 °F - 69.8 °F 88% 30.08 in 10.0 mi West 4.6 mph - N/A   Overcast
5:53 AM 73.0 °F - 69.1 °F 87% 30.05 in 10.0 mi West 3.5 mph - N/A   Overcast
6:53 AM 73.0 °F - 70.0 °F 90% 30.05 in 10.0 mi Calm Calm - N/A   Overcast
7:43 AM 73.4 °F - 69.8 °F 88% 30.08 in 10.0 mi SSW 4.6 mph - N/A   Mostly Cloudy
7:53 AM 73.9 °F - 70.0 °F 87% 30.05 in 10.0 mi SSW 4.6 mph - N/A   Mostly Cloudy
8:53 AM 79.0 °F - 72.0 °F 79% 30.05 in 10.0 mi WSW 8.1 mph - N/A   Mostly Cloudy
9:53 AM 79.0 °F - 73.0 °F 82% 30.05 in 10.0 mi SW 8.1 mph - N/A   Mostly Cloudy
10:53 AM 81.0 °F 85.8 °F 73.0 °F 77% 30.05 in 10.0 mi SW 8.1 mph - N/A   Mostly Cloudy
11:53 AM 82.0 °F 87.9 °F 73.9 °F 76% 30.04 in 10.0 mi SSW 6.9 mph - N/A   Mostly Cloudy
12:53 PM 84.9 °F 93.3 °F 75.0 °F 72% 30.01 in 10.0 mi South 5.8 mph - N/A   Mostly Cloudy
1:53 PM 87.1 °F 95.4 °F 73.9 °F 65% 29.99 in 10.0 mi SSW 8.1 mph - N/A   Mostly Cloudy
2:06 PM 87.8 °F 95.6 °F 73.4 °F 62% 30.02 in 10.0 mi SW 4.6 mph - N/A Thunderstorm Thunderstorm
2:19 PM 87.8 °F 95.6 °F 73.4 °F 62% 30.02 in 10.0 mi WSW 5.8 mph - N/A Thunderstorm Thunderstorm
2:35 PM 82.4 °F 84.6 °F 66.2 °F 58% 30.03 in 10.0 mi WNW 16.1 mph 23.0 mph N/A Thunderstorm Thunderstorm
2:53 PM 78.1 °F - 71.1 °F 79% 30.01 in 3.0 mi WNW 8.1 mph - 0.00 in Rain , Thunderstorm Light Thunderstorms and Rain
3:53 PM 75.0 °F - 71.1 °F 87% 29.97 in 7.0 mi South 3.5 mph - 0.10 in Rain , Thunderstorm Light Thunderstorms and Rain
4:19 PM 75.2 °F - 71.6 °F 89% 29.98 in 7.0 mi SSW 3.5 mph - 0.00 in Rain Light Rain
4:53 PM 77.0 °F - 73.0 °F 88% 29.95 in 7.0 mi West 5.8 mph - 0.00 in   Overcast
5:53 PM 78.1 °F - 71.1 °F 79% 29.95 in 10.0 mi SSW 8.1 mph - N/A   Overcast
6:53 PM 78.1 °F - 71.1 °F 79% 29.94 in 10.0 mi West 3.5 mph - N/A   Overcast
7:53 PM 77.0 °F - 70.0 °F 79% 29.97 in 8.0 mi WNW 5.8 mph - 0.00 in Rain Light Rain
8:00 PM 75.2 °F - 71.6 °F 89% 30.00 in 2.0 mi WNW 6.9 mph - 0.02 in Rain Rain
8:05 PM 75.2 °F - 71.6 °F 89% 30.00 in 3.0 mi WNW 6.9 mph - 0.23 in Rain , Thunderstorm Light Thunderstorms and Rain
8:53 PM 73.9 °F - 71.1 °F 91% 29.94 in 10.0 mi SSE 9.2 mph - 0.25 in Rain Light Rain
9:53 PM 73.9 °F - 70.0 °F 87% 29.93 in 10.0 mi SW 5.8 mph - 0.00 in Rain Light Rain
10:53 PM 73.0 °F - 71.1 °F 93% 29.94 in 10.0 mi WNW 4.6 mph - 0.00 in   Mostly Cloudy
11:53 PM 73.0 °F - 70.0 °F 90% 29.95 in 10.0 mi WNW 6.9 mph - N/A   Overcast